Stündliche Wetter Holyadyn

Heute, 16 Juni, Mittwoch

Zeit Temperatur Niederschläge Wind Luftdruck Luftfeuchtigkeit
00:00 +16°C° 0 mm 2 m/S 747 mmHg 84%
01:00 +16°C° 0 mm 2 m/S 747 mmHg 87%
02:00 +15°C° 0 mm 2 m/S 747 mmHg 88%
03:00 +15°C° 0 mm 2 m/S 747 mmHg 90%
04:00 +15°C° 0 mm 2 m/S 747 mmHg 92%
05:00 +15°C° 0 mm 2 m/S 747 mmHg 93%
06:00 +16°C° 0 mm 2 m/S 748 mmHg 88%
07:00 +18°C° 0 mm 3 m/S 748 mmHg 83%
08:00 +20°C° 0 mm 3 m/S 748 mmHg 79%
09:00 +21°C° 0 mm 3 m/S 749 mmHg 73%
10:00 +22°C° 0 mm 3 m/S 749 mmHg 68%
11:00 +24°C° 0 mm 2 m/S 749 mmHg 63%
12:00 +25°C° 0 mm 3 m/S 749 mmHg 60%
13:00 +25°C° 0 mm 3 m/S 748 mmHg 58%
14:00 +26°C° 0 mm 3 m/S 748 mmHg 56%
15:00 +25°C° 0 mm 4 m/S 748 mmHg 57%
16:00 +25°C° 0 mm 4 m/S 748 mmHg 59%
17:00 +23°C° 0 mm 4 m/S 748 mmHg 60%
18:00 +22°C° 0 mm 4 m/S 749 mmHg 66%
19:00 +20°C° 0 mm 3 m/S 749 mmHg 72%
20:00 +18°C° 0 mm 3 m/S 749 mmHg 78%
21:00 +17°C° 0 mm 2 m/S 749 mmHg 80%
22:00 +16°C° 0 mm 2 m/S 749 mmHg 81%
23:00 +14°C° 0 mm 2 m/S 750 mmHg 83%

Morgen, 17 Juni, Donnerstag

Zeit Temperatur Niederschläge Wind Luftdruck Luftfeuchtigkeit
00:00 +14°C° 0 mm 2 m/S 750 mmHg 85%
01:00 +13°C° 0 mm 2 m/S 750 mmHg 87%
02:00 +13°C° 0 mm 2 m/S 750 mmHg 89%
03:00 +13°C° 0 mm 2 m/S 750 mmHg 89%
04:00 +13°C° 0 mm 2 m/S 750 mmHg 90%
05:00 +12°C° 0 mm 2 m/S 750 mmHg 90%
06:00 +14°C° 0 mm 2 m/S 751 mmHg 83%
07:00 +17°C° 0 mm 2 m/S 751 mmHg 77%
08:00 +19°C° 0 mm 2 m/S 751 mmHg 70%
09:00 +20°C° 0 mm 3 m/S 751 mmHg 65%
10:00 +22°C° 0 mm 3 m/S 751 mmHg 61%
11:00 +24°C° 0 mm 3 m/S 751 mmHg 57%
12:00 +25°C° 0 mm 3 m/S 751 mmHg 55%
13:00 +26°C° 0 mm 3 m/S 751 mmHg 53%
14:00 +27°C° 0 mm 2 m/S 751 mmHg 51%
15:00 +26°C° 0 mm 3 m/S 751 mmHg 56%
16:00 +26°C° 0 mm 3 m/S 751 mmHg 60%
17:00 +25°C° 0 mm 3 m/S 751 mmHg 64%
18:00 +24°C° 0 mm 3 m/S 751 mmHg 69%
19:00 +22°C° 0 mm 3 m/S 751 mmHg 74%
20:00 +21°C° 0 mm 3 m/S 751 mmHg 80%
21:00 +20°C° 0 mm 3 m/S 751 mmHg 81%
22:00 +19°C° 0 mm 3 m/S 751 mmHg 83%
23:00 +18°C° 0 mm 3 m/S 752 mmHg 85%

übermorgen, 18 Juni, Freitag

Zeit Temperatur Niederschläge Wind Luftdruck Luftfeuchtigkeit
00:00 +17°C° 0 mm 3 m/S 751 mmHg 88%
01:00 +17°C° 0 mm 3 m/S 751 mmHg 90%
02:00 +17°C° 0 mm 3 m/S 751 mmHg 92%
03:00 +17°C° 0 mm 3 m/S 751 mmHg 92%
04:00 +17°C° 0 mm 3 m/S 752 mmHg 92%
05:00 +17°C° 0 mm 3 m/S 752 mmHg 93%
06:00 +19°C° 0 mm 3 m/S 752 mmHg 87%
07:00 +20°C° 0 mm 4 m/S 752 mmHg 81%
08:00 +22°C° 0 mm 4 m/S 752 mmHg 75%
09:00 +23°C° 0 mm 4 m/S 752 mmHg 70%
10:00 +25°C° 0 mm 4 m/S 752 mmHg 65%
11:00 +27°C° 0 mm 4 m/S 752 mmHg 60%
12:00 +27°C° 0 mm 5 m/S 752 mmHg 58%
13:00 +28°C° 0 mm 5 m/S 751 mmHg 56%
14:00 +28°C° 0 mm 5 m/S 751 mmHg 54%
15:00 +28°C° 0 mm 4 m/S 751 mmHg 56%
16:00 +28°C° 0 mm 4 m/S 751 mmHg 57%
17:00 +28°C° 0 mm 4 m/S 751 mmHg 58%
18:00 +26°C° 0 mm 3 m/S 751 mmHg 65%
19:00 +25°C° 0 mm 3 m/S 751 mmHg 71%
20:00 +23°C° 0 mm 2 m/S 751 mmHg 78%
21:00 +21°C° 0 mm 2 m/S 751 mmHg 82%
22:00 +20°C° 0 mm 3 m/S 751 mmHg 87%
23:00 +19°C° 0 mm 3 m/S 751 mmHg 91%

19 Juni, Samstag

Zeit Temperatur Niederschläge Wind Luftdruck Luftfeuchtigkeit
00:00 +18°C° 0 mm 3 m/S 751 mmHg 92%
01:00 +18°C° 0 mm 3 m/S 751 mmHg 93%
02:00 +17°C° 0 mm 3 m/S 751 mmHg 94%
03:00 +17°C° 0 mm 3 m/S 751 mmHg 94%
04:00 +17°C° 0 mm 3 m/S 751 mmHg 95%
05:00 +17°C° 0 mm 3 m/S 751 mmHg 95%
06:00 +19°C° 0 mm 3 m/S 751 mmHg 89%
07:00 +21°C° 0 mm 4 m/S 751 mmHg 83%
08:00 +22°C° 0 mm 5 m/S 751 mmHg 78%
09:00 +25°C° 0 mm 5 m/S 751 mmHg 73%
10:00 +26°C° 0 mm 5 m/S 751 mmHg 67%
11:00 +27°C° 0 mm 5 m/S 751 mmHg 62%
12:00 +28°C° 0 mm 5 m/S 751 mmHg 61%
13:00 +28°C° 0 mm 5 m/S 751 mmHg 60%
14:00 +29°C° 0 mm 5 m/S 750 mmHg 59%
15:00 +28°C° 0 mm 4 m/S 750 mmHg 60%
16:00 +28°C° 0 mm 4 m/S 750 mmHg 61%
17:00 +28°C° 0 mm 4 m/S 750 mmHg 63%
18:00 +27°C° 0 mm 3 m/S 750 mmHg 68%
19:00 +25°C° 0 mm 3 m/S 750 mmHg 73%
20:00 +24°C° 0 mm 2 m/S 750 mmHg 78%
21:00 +23°C° 0 mm 2 m/S 750 mmHg 83%
22:00 +20°C° 0 mm 2 m/S 750 mmHg 87%
23:00 +19°C° 0 mm 2 m/S 750 mmHg 92%

20 Juni, Sonntag

Zeit Temperatur Niederschläge Wind Luftdruck Luftfeuchtigkeit
00:00 +18°C° 0 mm 2 m/S 750 mmHg 93%
01:00 +18°C° 0 mm 2 m/S 751 mmHg 94%
02:00 +18°C° 0 mm 2 m/S 751 mmHg 95%
03:00 +18°C° 0 mm 2 m/S 750 mmHg 95%
04:00 +17°C° 0 mm 2 m/S 750 mmHg 95%
05:00 +17°C° 0 mm 2 m/S 750 mmHg 95%
06:00 +19°C° 0 mm 3 m/S 750 mmHg 89%
07:00 +21°C° 0 mm 4 m/S 750 mmHg 83%
08:00 +22°C° 0 mm 4 m/S 750 mmHg 76%
09:00 +25°C° 0 mm 4 m/S 750 mmHg 71%
10:00 +26°C° 0 mm 5 m/S 750 mmHg 66%
11:00 +27°C° 0 mm 5 m/S 750 mmHg 61%
12:00 +27°C° 0 mm 5 m/S 750 mmHg 60%
13:00 +28°C° 0 mm 5 m/S 749 mmHg 59%
14:00 +28°C° 0 mm 4 m/S 749 mmHg 57%
15:00 +28°C° 0 mm 4 m/S 749 mmHg 61%
16:00 +27°C° 0 mm 4 m/S 749 mmHg 64%
17:00 +27°C° 0 mm 4 m/S 749 mmHg 67%
18:00 +26°C° 0.1 mm 4 m/S 749 mmHg 72%
19:00 +25°C° 0.1 mm 3 m/S 748 mmHg 78%
20:00 +24°C° 0.1 mm 2 m/S 748 mmHg 83%
21:00 +22°C° 0 mm 3 m/S 748 mmHg 86%
22:00 +21°C° 0 mm 3 m/S 748 mmHg 88%
23:00 +20°C° 0 mm 3 m/S 749 mmHg 91%

21 Juni, Montag

Zeit Temperatur Niederschläge Wind Luftdruck Luftfeuchtigkeit
00:00 +20°C° 0 mm 3 m/S 748 mmHg 92%
01:00 +19°C° 0 mm 3 m/S 748 mmHg 93%
02:00 +19°C° 0 mm 3 m/S 748 mmHg 94%
03:00 +18°C° 0 mm 3 m/S 748 mmHg 95%
04:00 +18°C° 0 mm 3 m/S 748 mmHg 95%
05:00 +18°C° 0 mm 3 m/S 748 mmHg 95%
06:00 +20°C° 0 mm 3 m/S 748 mmHg 88%
07:00 +21°C° 0 mm 4 m/S 748 mmHg 82%
08:00 +23°C° 0 mm 4 m/S 748 mmHg 75%
09:00 +25°C° 0 mm 5 m/S 748 mmHg 69%
10:00 +26°C° 0 mm 5 m/S 748 mmHg 63%
11:00 +27°C° 0 mm 5 m/S 747 mmHg 57%
12:00 +28°C° 0 mm 5 m/S 747 mmHg 55%
13:00 +28°C° 0 mm 5 m/S 747 mmHg 53%
14:00 +29°C° 0 mm 5 m/S 747 mmHg 51%
15:00 +29°C° 0 mm 5 m/S 746 mmHg 53%
16:00 +29°C° 0 mm 4 m/S 746 mmHg 55%
17:00 +29°C° 0 mm 4 m/S 746 mmHg 57%
18:00 +28°C° 0.1 mm 3 m/S 746 mmHg 63%
19:00 +26°C° 0.1 mm 3 m/S 745 mmHg 70%
20:00 +25°C° 0.1 mm 2 m/S 745 mmHg 77%
21:00 +24°C° 0.1 mm 2 m/S 745 mmHg 80%
22:00 +23°C° 0.1 mm 2 m/S 745 mmHg 83%
23:00 +21°C° 0.1 mm 2 m/S 744 mmHg 86%
Mehr zeigen

Wir brauchen deine Erlaubnis

Meteoprog und unser Service Anbieter werden persönliche Daten aufbewahren, so wie Cookies, Geräte Bezeichnung oder ähnliche Technologien von deinem Gerät und Prozess, so wie Persönliche Daten Inhalte und Werbungen, genauso wie social Media und den Verkehr zu analysieren.

  • Aufbewahrung und/oder Zugang zu deiner Geräte Informationen.

    Cookies, Geräte Bezeichnung oder andere Informationen, können aufbewahrt oder Zugang zu deinem Gerät erhalten, für den Grund, der oben angegeben wird.

  • Personalisierte Werbung und Inhalte, Messungen, Einblick in das Publikum und Produkt Entwicklung.

    Werbungen und Inhalte können personalisiert werden, basierend auf ein Profil. Mehr Daten können besser personalisierte Werbungen und Inhalte hinzufügen. Werbung und Inhalte können gezeigt und gemessen werden. Einblicke über das Publikum, welche die Werbung gesehen haben und den Inhalt, können abgeleitet werden. So wie Daten können genutzt werden, um es zu verbessern oder die Benutzer Erfahrung zu verbessern das System und die Software.

Wenn du “Ich stimme zu” klickst, erlaubst du uns, die Cookies zu benutzen die Geräte Bezeichnung, den Web oder ähnliche Technologien zu benutzen. Deine Settings, können in deinem Gerät bei deinem Browser geändert werden.

Für den bestimmten Zweck, berechtigten Interessen beruhen darauf, mehr als auf den Inhalt. Du kannst mehr darüber in unseren Privaten und Cookie Politik lesen.